This demonstration page uses our WeatherBlox Daily Observations layout. Learn more.

Left ArrowRight Arrow

41.86663, -103.66717

Hourly Observations for April 13, 2016

Temp ( °F °C ) Dew Point ( °F °C ) Humidity (%) Winds ( mph kmh ) Pressure ( in mb ) Visibility ( mi km ) Precip ( " mm )
12:53 am 00:53 Clear 39 3.9 33 0.6 79 79 N N/A 29.93 1014 10 16 N/A
1:53 am 01:53 Clear 39 3.9 33 0.6 79 79 NNW 7 11 29.93 1014 10 16 N/A
2:53 am 02:53 Clear 41 5 32 undefined 70 70 WNW 6 9 29.93 1014 10 16 N/A
3:53 am 03:53 Clear 38 3.3 33 0.6 83 83 NNW 6 9 29.94 1014 10 16 N/A
4:53 am 04:53 Clear 35 1.7 31 -0.6 85 85 NW 8 13 29.97 1015 10 16 N/A
5:53 am 05:53 Clear 36 2.2 33 0.6 89 89 NNW 8 13 29.96 1015 10 16 N/A
6:53 am 06:53 Sunny 38 3.3 32 undefined 79 79 NW 7 11 29.96 1015 10 16 N/A
7:53 am 07:53 Sunny 46 7.8 36 2.2 68 68 WNW 7 11 29.99 1016 10 16 N/A
8:53 am 08:53 Sunny 55 12.8 38 3.3 53 53 WNW 7 11 29.96 1014 10 16 N/A
9:53 am 09:53 Sunny 63 17.2 38 3.3 40 40 WNW 10 17 29.95 1014 10 16 N/A
10:53 am 10:53 Sunny 70 21.1 38 3.3 31 31 W 9 15 29.93 1014 10 16 N/A
11:53 am 11:53 Sunny 72 22.2 35 1.7 26 26 VRB 3 6 29.92 1013 10 16 N/A
12:53 pm 12:53 Sunny 76 24.4 33 0.6 21 21 WSW 10 17 29.88 1012 10 16 N/A
1:53 pm 13:53 Mostly Cloudy 78 25.6 31 -0.6 18 18 SSE 10 17 29.86 1011 10 16 N/A
2:53 pm 14:53 Mostly Sunny 78 25.6 29 -1.7 16 16 SSE 13 20 29.83 1010 10 16 N/A
3:53 pm 15:53 Partly Cloudy 78 25.6 28 -2.2 16 16 ESE 10 17 29.81 1010 10 16 N/A
4:53 pm 16:53 Mostly Cloudy 78 25.6 27 -2.8 15 15 SSE 9 15 29.80 1009 10 16 N/A
5:53 pm 17:53 Mostly Sunny 76 24.4 29 -1.7 18 18 S 13 20 29.81 1009 10 16 N/A
6:53 pm 18:53 Mostly Sunny 71 21.7 31 -0.6 23 23 S 8 13 29.81 1010 10 16 N/A
7:53 pm 19:53 Mostly Cloudy 66 18.9 35 1.7 32 32 SE 10 17 29.81 1010 10 16 N/A
8:53 pm 20:53 Partly Cloudy 66 18.9 35 1.7 32 32 N N/A 29.82 1010 10 16 N/A
9:53 pm 21:53 Mostly Cloudy 59 15 37 2.8 44 44 ESE 8 13 29.81 1010 10 16 N/A
10:53 pm 22:53 Partly Cloudy 62 16.7 35 1.7 37 37 SE 10 17 29.80 1009 10 16 N/A
11:53 pm 23:53 Mostly Cloudy 59 15 35 1.7 41 41 ESE 8 13 29.79 1009 10 16 N/A

Powered by AerisWeather